Content
SEND FEEDBACK

Daily
Averages
Monthly
Summary
United States of America

LOHN, TEXAS


Home > North America > United States > Texas
Elevation: 1380 feet     Latitude: 31 23N     Longitude: 099 22W

WEATHER
 
SELECT A DAY
Number of Records: 210,516;   Date Range: 8/25/05 - 7/7/14
 
SHARE

PRINT THIS DATA

[ ← Previous Day ]
WEATHER ALMANAC - FEBRUARY 5, 2013
[ Next Day → ]
[ °C ]   °F
Weather ElementAverageHighLow
Temperature58.3 °F75.2 °F (3:15 pm)39.2 °F (5:35 am)
Dewpoint37 °F46.4 °F (9:55 pm)32 °F (4:55 pm)
Humidity49.6 %87 % (5:35 am)22 % (4:55 pm)
Barometer29.96 in30.03 in (10:35 am)29.91 in (3:55 pm)
Wind Speed5.8 mph12.7 mph (8:35 pm)
Weather ElementAverage
Visibility9 mi
Wind DirectionSSE (172.2 °)

Weather ElementTotal
Precipitation---
Heating Degree Days7.8 (Base 65)
Growing Degree Days7.2 (Base 50)
Averaged from 68 records on February 5, 2013
WEATHER CONDITIONS BREAKOUT
WIND DIRECTION BREAKOUT
WEATHER BY HOUR - FEBRUARY 5, 2013
[ °C ]   °F
Local TimeTemperatureDewpointHumidityBarometerVisibilityWind DirectionWind SpeedGust SpeedPrecipitationEventsConditions
1:15 AM48.2 °F33.8 °F58 %29.92 in10.0 miNW (320°)11.5 mphClear
1:35 AM50.0 °F33.8 °F54 %29.92 in10.0 miNNW (330°)8.1 mphClear
1:55 AM51.8 °F35.6 °F54 %29.92 in10.0 miNNW (330°)8.1 mphClear
2:15 AM51.8 °F37.4 °F58 %29.92 in10.0 miNNW (330°)8.1 mphClear
2:35 AM50.0 °F37.4 °F62 %29.92 in10.0 miNW (320°)9.2 mphClear
2:55 AM48.2 °F37.4 °F66 %29.92 in10.0 miWNW (300°)5.8 mphClear
3:15 AM46.4 °F35.6 °F66 %29.92 in10.0 miWNW (300°)4.6 mphClear
3:35 AM42.8 °F33.8 °F70 %29.92 in10.0 miWest (280°)4.6 mphClear
3:55 AM42.8 °F33.8 °F70 %29.93 in10.0 miCalmClear
4:15 AM42.8 °F33.8 °F70 %29.92 in10.0 miWNW (290°)3.5 mphClear
4:35 AM44.6 °F37.4 °F76 %29.92 in10.0 miNW (320°)9.2 mphClear
4:55 AM42.8 °F35.6 °F76 %29.92 in10.0 miWest (280°)4.6 mphClear
5:15 AM41.0 °F35.6 °F81 %29.93 in10.0 miWest (280°)8.1 mphClear
5:35 AM39.2 °F35.6 °F87 %29.93 in10.0 miWest (270°)8.1 mphClear
5:55 AM41.0 °F35.6 °F81 %29.93 in10.0 miWest (260°)6.9 mphClear
6:15 AM41.0 °F35.6 °F81 %29.94 in10.0 miWest (260°)6.9 mphClear
6:35 AM41.0 °F35.6 °F81 %29.94 in10.0 miWest (260°)5.8 mphClear
6:55 AM39.2 °F33.8 °F81 %29.95 in10.0 miWest (260°)5.8 mphClear
7:15 AM39.2 °F33.8 °F81 %29.96 in10.0 miWSW (250°)6.9 mphClear
7:35 AM39.2 °F33.8 °F81 %29.96 in10.0 miWest (280°)5.8 mphClear
7:55 AM41.0 °F35.6 °F81 %29.97 in10.0 miWest (260°)5.8 mphClear
8:15 AM44.6 °F35.6 °F71 %29.98 in10.0 miWNW (290°)5.8 mphClear
8:35 AM46.4 °F35.6 °F66 %29.99 in10.0 miNW (310°)5.8 mphClear
8:55 AM51.8 °F35.6 °F54 %30.00 in10.0 miWNW (300°)4.6 mphClear
9:15 AM55.4 °F35.6 °F47 %30.00 in10.0 miWNW (300°)8.1 mphClear
9:35 AM57.2 °F35.6 °F44 %30.01 in10.0 miWNW (300°)6.9 mphClear
9:55 AM60.8 °F35.6 °F39 %30.02 in10.0 miWNW (300°)6.9 mphClear
10:15 AM62.6 °F35.6 °F37 %30.02 in10.0 miNW (320°)6.9 mphClear
10:35 AM64.4 °F37.4 °F37 %30.03 in10.0 miNW (310°)5.8 mphClear
10:55 AM66.2 °F39.2 °F37 %30.02 in10.0 miVariable3.5 mphClear
11:15 AM66.2 °F41.0 °F40 %30.02 in10.0 miNW (320°)3.5 mphClear
11:35 AM69.8 °F39.2 °F33 %30.02 in10.0 miNNW (330°)4.6 mphClear
11:55 AM69.8 °F39.2 °F33 %30.01 in10.0 miNW (310°)6.9 mphClear
12:15 PM69.8 °F39.2 °F33 %30.01 in10.0 miNW (320°)6.9 mphClear
12:35 PM69.8 °F39.2 °F33 %30.00 in10.0 miVariable3.5 mphClear
12:55 PM71.6 °F39.2 °F31 %29.98 in10.0 miNW (310°)6.9 mphClear
1:15 PM71.6 °F39.2 °F31 %29.98 in10.0 miVariable3.5 mphClear
1:35 PM71.6 °F39.2 °F31 %29.96 in10.0 miNW (310°)8.1 mphClear
1:55 PM71.6 °F37.4 °F29 %29.95 in10.0 miVariable4.6 mphClear
2:15 PM71.6 °F37.4 °F29 %29.94 in10.0 miCalmClear
2:35 PM71.6 °F37.4 °F29 %29.93 in10.0 miNNE (20°)5.8 mphClear
2:55 PM73.4 °F33.8 °F23 %29.93 in10.0 miCalmClear
3:15 PM75.2 °F35.6 °F24 %29.92 in10.0 miCalmClear
3:35 PM73.4 °F33.8 °F23 %29.92 in10.0 miENE (60°)3.5 mphClear
3:55 PM73.4 °F33.8 °F23 %29.91 in10.0 miVariable3.5 mphClear
4:15 PM73.4 °F33.8 °F23 %29.92 in10.0 miCalmClear
4:35 PM73.4 °F33.8 °F23 %29.92 in10.0 miEast (80°)3.5 mphClear
4:55 PM73.4 °F32.0 °F22 %29.92 in10.0 miCalmClear
5:15 PM71.6 °F32.0 °F23 %29.92 in10.0 miNE (50°)4.6 mphClear
5:35 PM69.8 °F33.8 °F27 %29.92 in10.0 miNE (40°)4.6 mphClear
5:55 PM66.2 °F33.8 °F30 %29.93 in10.0 miNNE (30°)4.6 mphClear
6:15 PM66.2 °F33.8 °F30 %29.93 in10.0 miNE (50°)5.8 mphClear
6:35 PM64.4 °F33.8 °F32 %29.94 in10.0 miNE (50°)6.9 mphClear
6:55 PM64.4 °F35.6 °F34 %29.94 in10.0 miENE (60°)6.9 mphClear
7:15 PM62.6 °F33.8 °F34 %29.94 in10.0 miNE (50°)8.1 mphClear
7:35 PM60.8 °F33.8 °F36 %29.95 in10.0 miENE (60°)6.9 mphClear
7:55 PM62.6 °F33.8 °F34 %29.96 in10.0 miENE (60°)5.8 mphClear
8:15 PM60.8 °F33.8 °F36 %29.96 in10.0 miENE (60°)6.9 mphClear
8:35 PM62.6 °F33.8 °F34 %29.97 in10.0 miENE (70°)12.7 mphClear
9:15 PM60.8 °F42.8 °F52 %29.98 in2.5 miEast (80°)6.9 mphHaze
9:35 PM60.8 °F44.6 °F55 %29.98 in2.5 miEast (90°)9.2 mphHaze
9:55 PM60.8 °F46.4 °F59 %29.98 in2.5 miEast (90°)8.1 mphHaze
10:15 PM59.0 °F46.4 °F63 %29.98 in2.5 miEast (90°)6.9 mphHaze
10:35 PM59.0 °F46.4 °F63 %29.98 in2.0 miESE (110°)5.8 mphHaze
10:55 PM57.2 °F46.4 °F67 %29.98 in2.5 miEast (100°)9.2 mphHaze
11:15 PM57.2 °F46.4 °F67 %29.98 in2.5 miEast (100°)6.9 mphHaze
11:35 PM57.2 °F46.4 °F67 %29.99 in2.5 miEast (100°)5.8 mphHaze
11:55 PM55.4 °F46.4 °F72 %29.98 in2.0 miEast (100°)5.8 mphHaze
Hourly data recorded from KBBD, located miles away from Lohn, Texas







STORIES FROM OUR PARTNERS